Weather History for Zanesville, OH

Change the Weather History Date:

Sunday, October 9, 2011

  Actual Average Record
Temperature  
Mean Temperature 63 °F 55 °F  
Max Temperature 78 °F 67 °F 87 °F (1949)
Min Temperature 47 °F 44 °F 25 °F (1951)
Degree Days  
Heating Degree Days 2 10  
Month to date heating degree days 84 81  
Since 1 July heating degree days 176 190  
Cooling Degree Days 0 0  
Month to date cooling degree days 0 7  
Year to date cooling degree days 955 766  
Growing Degree Days 12 (Base 50)    
Moisture  
Dew Point 50 °F    
Average Humidity 65    
Maximum Humidity 96    
Minimum Humidity 33    
Precipitation  
Precipitation 0.00 in 0.09 in 0.76 in (1960)
Month to date precipitation 0.27 0.80  
Year to date precipitation 38.05 30.33  
Sea Level Pressure  
Sea Level Pressure 30.38 in    
Wind  
Wind Speed 0 mph (East)    
Max Wind Speed 7 mph    
Max Gust Speed 9 mph    
Visibility 9 miles    
Events      
T = Trace of Precipitation, MM = Missing Value Source: NWS Daily Summary

Daily Weather History Graph

Daily Weather History Graph

Search for Another Location

Airport:

Trip Planner

Search our weather history database for the weather conditions in past years. The results will help you decide how hot, cold, wet, or windy it might be!

Date:

Astronomy

Oct. 09, 2011 Rise Set
Actual Time 7:31 AM EDT 6:57 PM EDT
Civil Twilight 7:04 AM EDT 7:24 PM EDT
Nautical Twilight 6:33 AM EDT 7:55 PM EDT
Astronomical Twilight 6:01 AM EDT 8:27 PM EDT
Moon 5:33 PM EDT (10/9) 5:15 AM EDT (10/9)
Length of Visible Light 12h 20m
Length of Day
11h 26m
Waxing Gibbous, 95% of the Moon is Illuminated
Oct 9
Waxing Gibbous
Oct 11
Full
Oct 19
Last Quarter
Oct 26
New
Nov 2
First Quarter

Hourly Weather History & Observations

Time (EDT) Temp. Dew Point Humidity Pressure Visibility Wind Dir Wind Speed Gust Speed Precip Events Conditions
12:53 AM 53.1 °F 52.0 °F 96% 30.39 in 8.0 mi Calm Calm - N/A   Clear
1:53 AM 54.0 °F 52.0 °F 93% 30.39 in 8.0 mi Calm Calm - N/A   Clear
2:53 AM 52.0 °F 50.0 °F 93% 30.40 in 5.0 mi Calm Calm - N/A   Clear
3:53 AM 50.0 °F 48.9 °F 96% 30.40 in 8.0 mi Calm Calm - N/A   Clear
4:53 AM 50.0 °F 48.0 °F 93% 30.40 in 7.0 mi Calm Calm - N/A   Clear
5:53 AM 48.9 °F 46.9 °F 93% 30.41 in 7.0 mi Calm Calm - N/A   Clear
6:53 AM 48.0 °F 46.0 °F 93% 30.42 in 6.0 mi Calm Calm - N/A   Clear
7:53 AM 48.0 °F 46.0 °F 93% 30.43 in 5.0 mi Calm Calm - N/A   Clear
8:53 AM 51.8 °F 50.0 °F 94% 30.45 in 7.0 mi Calm Calm - N/A   Clear
9:53 AM 59.0 °F 54.0 °F 83% 30.45 in 10.0 mi Calm Calm - N/A   Clear
10:53 AM 64.9 °F 54.0 °F 68% 30.45 in 10.0 mi Calm Calm - N/A   Clear
11:53 AM 70.0 °F 52.0 °F 53% 30.44 in 10.0 mi Calm Calm - N/A   Clear
12:53 PM 73.0 °F 48.9 °F 42% 30.42 in 10.0 mi Calm Calm - N/A   Clear
1:53 PM 75.0 °F 46.9 °F 37% 30.39 in 10.0 mi ESE 3.5 mph - N/A   Clear
2:53 PM 75.9 °F 46.0 °F 35% 30.37 in 10.0 mi Calm Calm - N/A   Clear
3:53 PM 77.0 °F 48.0 °F 36% 30.35 in 10.0 mi Calm Calm - N/A   Clear
4:53 PM 77.0 °F 46.9 °F 34% 30.33 in 10.0 mi NE 5.8 mph - N/A   Clear
5:53 PM 75.0 °F 48.9 °F 40% 30.33 in 10.0 mi Calm Calm - N/A   Clear
6:53 PM 69.1 °F 52.0 °F 54% 30.33 in 10.0 mi Calm Calm - N/A   Clear
7:53 PM 64.0 °F 51.1 °F 63% 30.33 in 10.0 mi Calm Calm - N/A   Clear
8:53 PM 59.0 °F 52.0 °F 78% 30.33 in 10.0 mi Calm Calm - N/A   Clear
9:53 PM 57.0 °F 53.1 °F 87% 30.33 in 10.0 mi Calm Calm - N/A   Clear
10:53 PM 55.9 °F 53.1 °F 90% 30.32 in 10.0 mi Calm Calm - N/A   Clear
11:53 PM 54.0 °F 52.0 °F 93% 30.32 in 10.0 mi Calm Calm - N/A   Clear